Weather History for Monroe, MI

Change the Weather History Date:

Wednesday, June 26, 2013

  Actual Average Record
Temperature  
Mean Temperature 74 °F -  
Max Temperature 82 °F 83 °F 106 °F (1988)
Min Temperature 66 °F 61 °F 48 °F (1940)
Cooling Degree Days 9    
Growing Degree Days 24 (Base 50)    
Moisture  
Dew Point 69 °F    
Average Humidity 84    
Maximum Humidity 100    
Minimum Humidity 62    
Precipitation  
Precipitation 0.00 in - - ()
Sea Level Pressure  
Sea Level Pressure 29.82 in    
Wind  
Wind Speed 6 mph (SW)    
Max Wind Speed 13 mph    
Max Gust Speed 21 mph    
Visibility 9 miles    
Events Rain    
Averages and records for this station are not official NWS values.
T = Trace of Precipitation, MM = Missing Value Source: NWS Daily Summary

Daily Weather History Graph

Daily Weather History Graph

Search for Another Location

Airport:

Trip Planner

Search our weather history database for the weather conditions in past years. The results will help you decide how hot, cold, wet, or windy it might be!

Date:

Astronomy

Jun. 26, 2013 Rise Set
Actual Time 6:00 AM EDT 9:13 PM EDT
Civil Twilight 5:25 AM EDT 9:47 PM EDT
Nautical Twilight 4:41 AM EDT 10:31 PM EDT
Astronomical Twilight 3:47 AM EDT 11:25 PM EDT
Moon 11:31 PM EDT (6/26) 9:54 AM EDT (6/26)
Length of Visible Light 16h 21m
Length of Day
15h 13m
Waning Gibbous, 85% of the Moon is Illuminated
Jun 26
Waning Gibbous
Jun 30
Last Quarter
Jul 8
New
Jul 15
First Quarter
Jul 22
Full

Hourly Weather History & Observations

Time (EDT) Temp. Heat Index Dew Point Humidity Pressure Visibility Wind Dir Wind Speed Gust Speed Precip Events Conditions
12:11 AM 71.6 °F - 68.0 °F 88% 29.92 in 7.0 mi WSW 12.7 mph 20.7 mph N/A Rain Rain
12:32 AM 69.8 °F - 66.2 °F 88% 29.92 in 7.0 mi West 9.2 mph - N/A Rain Rain
12:52 AM 69.8 °F - 66.2 °F 88% 29.93 in 3.0 mi West 11.5 mph 18.4 mph N/A Rain Rain
1:12 AM 69.8 °F - 66.2 °F 88% 29.89 in 7.0 mi SW 3.5 mph - N/A Rain Rain
1:32 AM 69.8 °F - 66.2 °F 88% 29.85 in 10.0 mi SSW 6.9 mph - N/A Rain Rain
1:52 AM 69.8 °F - 66.2 °F 88% 29.81 in 10.0 mi SW 4.6 mph - N/A Rain Rain
2:12 AM 68.0 °F - 66.2 °F 94% 29.81 in 10.0 mi NNW 8.1 mph - N/A Rain Light Rain
2:32 AM 68.0 °F - 66.2 °F 94% 29.80 in 10.0 mi WSW 5.8 mph - N/A Rain Light Rain
2:52 AM 69.8 °F - 66.2 °F 88% 29.80 in 10.0 mi WSW 6.9 mph - N/A   Light Drizzle
3:13 AM 69.8 °F - 66.2 °F 88% 29.81 in 10.0 mi NNW 5.8 mph - N/A Rain Light Rain
3:33 AM 69.8 °F - 66.2 °F 88% 29.82 in 10.0 mi Calm Calm - N/A   Scattered Clouds
3:53 AM 68.0 °F - 66.2 °F 94% 29.82 in 10.0 mi Calm Calm - N/A   Scattered Clouds
4:13 AM 68.0 °F - 66.2 °F 94% 29.82 in 7.0 mi East 3.5 mph - N/A   Clear
4:33 AM 68.0 °F - 66.2 °F 94% 29.83 in 10.0 mi Calm Calm - N/A   Clear
4:53 AM 68.0 °F - 66.2 °F 94% 29.84 in 10.0 mi Calm Calm - N/A   Clear
5:13 AM 68.0 °F - 66.2 °F 94% 29.85 in 10.0 mi Calm Calm - N/A   Scattered Clouds
5:33 AM 68.0 °F - 66.2 °F 94% 29.85 in 10.0 mi Calm Calm - N/A   Scattered Clouds
5:53 AM 68.0 °F - 66.2 °F 94% 29.85 in 10.0 mi Calm Calm - N/A   Scattered Clouds
6:14 AM 66.2 °F - 66.2 °F 100% 29.85 in 10.0 mi South 3.5 mph - N/A   Scattered Clouds
6:34 AM 68.0 °F - 66.2 °F 94% 29.84 in 10.0 mi SSW 4.6 mph - N/A   Clear
6:54 AM 69.8 °F - 66.2 °F 88% 29.85 in 10.0 mi South 4.6 mph - N/A   Clear
7:14 AM 69.8 °F - 66.2 °F 88% 29.86 in 10.0 mi SSW 4.6 mph - N/A   Clear
7:34 AM 69.8 °F - 66.2 °F 88% 29.87 in 10.0 mi SSW 4.6 mph - N/A   Clear
7:54 AM 69.8 °F - 66.2 °F 88% 29.86 in 10.0 mi SSW 9.2 mph - N/A   Clear
8:14 AM 69.8 °F - 66.2 °F 88% 29.87 in 10.0 mi SSW 6.9 mph - N/A   Scattered Clouds
8:34 AM 71.6 °F - 68.0 °F 88% 29.86 in 10.0 mi SW 9.2 mph - N/A   Mostly Cloudy
8:54 AM 71.6 °F - 68.0 °F 88% 29.87 in 10.0 mi WSW 8.1 mph - N/A   Overcast
9:14 AM 71.6 °F - 69.8 °F 94% 29.87 in 10.0 mi SW 5.8 mph - N/A   Mostly Cloudy
9:35 AM 73.4 °F - 69.8 °F 88% 29.88 in 10.0 mi WSW 9.2 mph - N/A   Mostly Cloudy
9:55 AM 73.4 °F - 69.8 °F 88% 29.86 in 10.0 mi WSW 10.4 mph - N/A   Overcast
10:15 AM 73.4 °F - 68.0 °F 83% 29.86 in 10.0 mi West 9.2 mph - N/A   Overcast
10:35 AM 75.2 °F - 69.8 °F 83% 29.85 in 10.0 mi West 9.2 mph - N/A   Mostly Cloudy
10:55 AM 75.2 °F - 69.8 °F 83% 29.86 in 10.0 mi West 8.1 mph - N/A   Scattered Clouds
11:15 AM 75.2 °F - 69.8 °F 83% 29.86 in 10.0 mi WNW 5.8 mph - N/A   Clear
11:35 AM 77.0 °F - 69.8 °F 78% 29.87 in 10.0 mi West 9.2 mph - N/A   Scattered Clouds
11:55 AM 78.8 °F - 71.6 °F 78% 29.87 in 10.0 mi West 9.2 mph - N/A   Mostly Cloudy
12:15 PM 78.8 °F - 69.8 °F 74% 29.87 in 10.0 mi West 12.7 mph 18.4 mph N/A   Overcast
12:36 PM 78.8 °F - 69.8 °F 74% 29.87 in 10.0 mi West 10.4 mph - N/A   Overcast
12:56 PM 78.8 °F - 69.8 °F 74% 29.86 in 10.0 mi West 9.2 mph 16.1 mph N/A   Overcast
1:16 PM 78.8 °F - 71.6 °F 78% 29.85 in 10.0 mi West 6.9 mph - N/A   Overcast
1:36 PM 78.8 °F - 71.6 °F 78% 29.84 in 10.0 mi NW 5.8 mph - N/A   Overcast
1:56 PM 80.6 °F 83.9 °F 69.8 °F 70% 29.82 in 10.0 mi Calm Calm - N/A   Scattered Clouds
2:16 PM 80.6 °F 83.9 °F 69.8 °F 70% 29.82 in 10.0 mi Calm Calm - N/A   Scattered Clouds
2:31 PM 80.6 °F 83.9 °F 69.8 °F 70% 29.82 in 10.0 mi Calm Calm - N/A   Scattered Clouds
2:51 PM 80.6 °F 83.9 °F 69.8 °F 70% 29.82 in 10.0 mi Calm Calm - N/A   Scattered Clouds
3:11 PM 80.6 °F 84.6 °F 71.6 °F 74% 29.82 in 10.0 mi South 5.8 mph - N/A   Scattered Clouds
3:32 PM 80.6 °F 84.6 °F 71.6 °F 74% 29.82 in 10.0 mi SE 4.6 mph - N/A   Mostly Cloudy
3:52 PM 80.6 °F 84.6 °F 71.6 °F 74% 29.82 in 10.0 mi South 4.6 mph - N/A   Overcast
4:12 PM 82.4 °F 87.2 °F 71.6 °F 70% 29.81 in 10.0 mi SE 4.6 mph - N/A   Scattered Clouds
4:32 PM 82.4 °F 87.2 °F 71.6 °F 70% 29.80 in 10.0 mi SSE 6.9 mph - N/A   Scattered Clouds
4:52 PM 82.4 °F 87.2 °F 71.6 °F 70% 29.80 in 10.0 mi South 3.5 mph - N/A   Scattered Clouds
5:12 PM 82.4 °F 87.2 °F 71.6 °F 70% 29.79 in 10.0 mi South 3.5 mph - N/A   Scattered Clouds
5:32 PM 82.4 °F 86.3 °F 69.8 °F 66% 29.79 in 10.0 mi SE 4.6 mph - N/A   Scattered Clouds
5:52 PM 82.4 °F 86.3 °F 69.8 °F 66% 29.78 in 10.0 mi Calm Calm - N/A   Scattered Clouds
6:12 PM 82.4 °F 85.4 °F 68.0 °F 62% 29.77 in 10.0 mi SSE 3.5 mph - N/A   Scattered Clouds
6:32 PM 82.4 °F 87.2 °F 71.6 °F 70% 29.76 in 10.0 mi East 9.2 mph - N/A   Clear
6:53 PM 80.6 °F 84.6 °F 71.6 °F 74% 29.76 in 10.0 mi East 5.8 mph - N/A   Clear
7:13 PM 80.6 °F 84.6 °F 71.6 °F 74% 29.75 in 10.0 mi ESE 6.9 mph - N/A   Clear
7:33 PM 78.8 °F - 69.8 °F 74% 29.76 in 10.0 mi ESE 6.9 mph - N/A   Clear
7:53 PM 78.8 °F - 71.6 °F 78% 29.76 in 10.0 mi East 4.6 mph - N/A   Clear
8:13 PM 77.0 °F - 71.6 °F 83% 29.77 in 10.0 mi East 4.6 mph - N/A   Scattered Clouds
8:33 PM 77.0 °F - 71.6 °F 83% 29.77 in 10.0 mi ESE 4.6 mph - N/A   Scattered Clouds
8:53 PM 75.2 °F - 71.6 °F 89% 29.77 in 1.2 mi South 5.8 mph - N/A Rain Light Rain
9:13 PM 75.2 °F - 71.6 °F 89% 29.78 in 7.0 mi SSW 8.1 mph - N/A Rain Rain
9:34 PM 71.6 °F - 69.8 °F 94% 29.78 in 7.0 mi SSW 9.2 mph - N/A Rain Rain
9:54 PM 71.6 °F - 68.0 °F 88% 29.77 in 5.0 mi Calm Calm - N/A Rain Heavy Rain
10:14 PM 71.6 °F - 69.8 °F 94% 29.76 in 10.0 mi Calm Calm - N/A Rain Light Rain
10:34 PM 71.6 °F - 69.8 °F 94% 29.75 in 10.0 mi Calm Calm - N/A   Mostly Cloudy
10:54 PM 69.8 °F - 68.0 °F 94% 29.74 in 10.0 mi Calm Calm - N/A   Scattered Clouds
11:14 PM 69.8 °F - 69.8 °F 100% 29.74 in 10.0 mi Calm Calm - N/A   Scattered Clouds
11:34 PM 69.8 °F - 69.8 °F 100% 29.75 in 7.0 mi Calm Calm - N/A   Mostly Cloudy
11:54 PM 71.6 °F - 69.8 °F 94% 29.76 in 7.0 mi Calm Calm - N/A   Overcast